カタログに戻る

FENGYUN 1C DEB

運用中SSO
NORAD 31507·DEBRIS·🇨🇳 China

打ち上げ May 10, 1999 から Taiyuan Satellite Launch Center

Loading…

次のパス (今後24時間)

TLE

最新Source: Space-Track

元期: Sep 14, 2026, 08:10 UTC

1 31507U 99025BWW 26257.34058051  .00000944  00000-0  22063-3 0  9992
2 31507  98.1669 287.7887 0113824 308.2138 114.9708 14.53143103 20195

AllMySatでFENGYUN 1C DEBをリアルタイム追跡

Download on the App Store